| time (UTC) | temp F | wind direction | speed MPH | gust MPH | rain 1hr in | rain 24hr in | rain mn in | humidity % | barometer mb |
| 20260507143057 | 85 | 102 | 10.0 | 20.0 | 0.00 | 0.00 | 0.00 | 77 | 1014.7 |
| 20260507141620 | 86 | 115 | 7.0 | 20.0 | 0.00 | 0.00 | 0.00 | 76 | 1014.4 |
| 20260507140056 | 85 | 48 | 7.0 | 19.0 | 0.00 | 0.00 | 0.00 | 77 | 1014.2 |
| 20260507134552 | 84 | 101 | 8.0 | 14.0 | 0.00 | 0.00 | 0.00 | 79 | 1014.2 |
| 20260507133052 | 84 | 73 | 8.0 | 15.0 | 0.00 | 0.00 | 0.00 | 79 | 1014.3 |
| 20260507131553 | 84 | 120 | 11.0 | 18.0 | 0.00 | 0.00 | 0.00 | 79 | 1014.1 |
| 20260507130108 | 83 | 128 | 7.0 | 14.0 | 0.00 | 0.00 | 0.00 | 80 | 1013.9 |
| 20260507124552 | 83 | 75 | 4.0 | 14.0 | 0.00 | 0.00 | 0.00 | 82 | 1013.8 |
| 20260507123052 | 81 | 0 | 4.0 | 11.0 | 0.00 | 0.00 | 0.00 | 84 | 1013.7 |
| 20260507121552 | 81 | 77 | 2.0 | 7.0 | 0.00 | 0.00 | 0.00 | 84 | 1013.7 |
| 20260507120050 | 80 | 100 | 2.0 | 6.0 | 0.00 | 0.00 | 0.00 | 86 | 1013.5 |
| 20260507114557 | 79 | 105 | 2.0 | 7.0 | 0.00 | 0.00 | 0.00 | 87 | 1013.4 |
| 20260507113046 | 79 | 103 | 1.0 | 9.0 | 0.00 | 0.00 | 0.00 | 87 | 1013.2 |
| 20260507111553 | 79 | 88 | 3.0 | 8.0 | 0.00 | 0.00 | 0.00 | 87 | 1012.9 |
| 20260507110054 | 79 | 75 | 5.0 | 11.0 | 0.00 | 0.00 | 0.00 | 87 | 1012.6 |
| 20260507104556 | 79 | 102 | 4.0 | 8.0 | 0.00 | 0.00 | 0.00 | 88 | 1012.6 |
| 20260507103050 | 79 | 91 | 4.0 | 10.0 | 0.00 | 0.00 | 0.00 | 88 | 1012.3 |
| 20260507101554 | 79 | 74 | 4.0 | 12.0 | 0.00 | 0.00 | 0.00 | 87 | 1012.4 |
| 20260507100052 | 80 | 89 | 5.0 | 10.0 | 0.00 | 0.00 | 0.00 | 87 | 1012.3 |
| 20260507094552 | 80 | 77 | 5.0 | 10.0 | 0.00 | 0.00 | 0.00 | 87 | 1012.2 |
| 20260507093058 | 79 | 115 | 5.0 | 10.0 | 0.00 | 0.00 | 0.00 | 88 | 1012.1 |
| 20260507091557 | 79 | 95 | 3.0 | 8.0 | 0.00 | 0.00 | 0.00 | 88 | 1012.1 |
| 20260507090050 | 79 | 120 | 4.0 | 8.0 | 0.00 | 0.00 | 0.00 | 88 | 1012.2 |
| 20260507084551 | 79 | 77 | 4.0 | 9.0 | 0.00 | 0.00 | 0.00 | 88 | 1012.3 |
| 20260507083052 | 79 | 83 | 3.0 | 10.0 | 0.00 | 0.00 | 0.00 | 88 | 1012.4 |
| 20260507081552 | 79 | 92 | 2.0 | 10.0 | 0.00 | 0.00 | 0.00 | 88 | 1012.5 |
| 20260507080056 | 79 | 82 | 3.0 | 10.0 | 0.00 | 0.00 | 0.00 | 88 | 1012.7 |
| 20260507074557 | 79 | 75 | 4.0 | 9.0 | 0.00 | 0.00 | 0.00 | 88 | 1012.8 |
| 20260507073101 | 79 | 70 | 3.0 | 8.0 | 0.00 | 0.00 | 0.00 | 88 | 1013.0 |
| 20260507071556 | 79 | 68 | 3.0 | 7.0 | 0.00 | 0.00 | 0.00 | 88 | 1013.2 |
| 20260507070100 | 79 | 60 | 2.0 | 6.0 | 0.00 | 0.00 | 0.00 | 88 | 1013.3 |
| 20260507064602 | 79 | 44 | 5.0 | 11.0 | 0.00 | 0.00 | 0.00 | 87 | 1013.3 |
| 20260507063056 | 79 | 71 | 3.0 | 8.0 | 0.00 | 0.00 | 0.00 | 88 | 1013.6 |
| 20260507061604 | 79 | 0 | 3.0 | 8.0 | 0.00 | 0.00 | 0.00 | 88 | 1013.7 |
| 20260507060104 | 79 | 65 | 3.0 | 11.0 | 0.00 | 0.00 | 0.00 | 87 | 1013.9 |
| 20260507054552 | 80 | 46 | 3.0 | 7.0 | 0.00 | 0.00 | 0.00 | 87 | 1014.2 |
| 20260507053056 | 80 | 58 | 4.0 | 15.0 | 0.00 | 0.00 | 0.00 | 87 | 1014.3 |
| 20260507051553 | 79 | 82 | 4.0 | 9.0 | 0.00 | 0.00 | 0.00 | 87 | 1014.5 |
| 20260507050050 | 79 | 126 | 4.0 | 9.0 | 0.00 | 0.00 | 0.00 | 88 | 1014.5 |
| 20260507044600 | 79 | 41 | 2.0 | 5.0 | 0.00 | 0.00 | 0.00 | 88 | 1014.8 |
| 20260507043051 | 79 | 102 | 2.0 | 7.0 | 0.00 | 0.00 | 0.00 | 88 | 1014.8 |
| 20260507041551 | 79 | 77 | 3.0 | 7.0 | 0.00 | 0.00 | 0.00 | 88 | 1015.0 |
| 20260507040050 | 79 | 84 | 3.0 | 7.0 | 0.00 | 0.00 | 0.00 | 89 | 1015.0 |
| 20260507034603 | 79 | 101 | 3.0 | 7.0 | 0.00 | 0.00 | 0.00 | 89 | 1014.9 |
| 20260507033056 | 79 | 112 | 4.0 | 10.0 | 0.00 | 0.00 | 0.00 | 89 | 1014.8 |
| 20260507031551 | 79 | 104 | 4.0 | 8.0 | 0.00 | 0.00 | 0.00 | 89 | 1014.6 |
| 20260507030057 | 79 | 97 | 4.0 | 9.0 | 0.00 | 0.00 | 0.00 | 89 | 1014.5 |
| 20260507024557 | 80 | 84 | 4.0 | 8.0 | 0.00 | 0.00 | 0.00 | 88 | 1014.4 |
| 20260507023053 | 80 | 98 | 1.0 | 5.0 | 0.00 | 0.00 | 0.00 | 86 | 1014.3 |
| 20260507021556 | 80 | 104 | 2.0 | 6.0 | 0.00 | 0.00 | 0.00 | 86 | 1014.2 |
| 20260507020050 | 80 | 115 | 0.0 | 5.0 | 0.00 | 0.00 | 0.00 | 86 | 1014.2 |
| 20260507014550 | 80 | 102 | 1.0 | 6.0 | 0.00 | 0.00 | 0.00 | 85 | 1014.2 |
| 20260507013058 | 80 | 103 | 3.0 | 7.0 | 0.00 | 0.00 | 0.00 | 85 | 1014.0 |
| 20260507011555 | 81 | 106 | 2.0 | 6.0 | 0.00 | 0.00 | 0.00 | 84 | 1014.0 |
| 20260507010054 | 81 | 91 | 3.0 | 8.0 | 0.00 | 0.00 | 0.00 | 83 | 1013.9 |
| 20260507004553 | 81 | 86 | 2.0 | 8.0 | 0.00 | 0.00 | 0.00 | 83 | 1013.8 |
| 20260507003049 | 81 | 84 | 3.0 | 8.0 | 0.00 | 0.00 | 0.00 | 83 | 1013.6 |
| 20260507001549 | 82 | 91 | 2.0 | 7.0 | 0.00 | 0.00 | 0.00 | 82 | 1013.4 |
| 20260507000054 | 82 | 150 | 5.0 | 14.0 | 0.00 | 0.00 | 0.00 | 80 | 1013.3 |
| 20260506234554 | 83 | 42 | 6.0 | 12.0 | 0.00 | 0.00 | 0.00 | 80 | 1013.2 |
| 20260506233051 | 83 | 114 | 8.0 | 15.0 | 0.00 | 0.00 | 0.00 | 79 | 1013.1 |
| 20260506231550 | 84 | 74 | 5.0 | 17.0 | 0.00 | 0.00 | 0.00 | 78 | 1013.0 |
| 20260506230049 | 85 | 96 | 8.0 | 17.0 | 0.00 | 0.00 | 0.00 | 76 | 1013.0 |
| 20260506224602 | 86 | 50 | 6.0 | 14.0 | 0.00 | 0.00 | 0.00 | 74 | 1013.1 |
| 20260506223056 | 85 | 105 | 8.0 | 16.0 | 0.00 | 0.00 | 0.00 | 74 | 1012.9 |
| 20260506221556 | 85 | 105 | 9.0 | 21.0 | 0.00 | 0.00 | 0.00 | 74 | 1012.9 |
| 20260506220051 | 85 | 51 | 9.0 | 20.0 | 0.00 | 0.00 | 0.00 | 75 | 1012.9 |
| 20260506214609 | 86 | 76 | 9.0 | 22.0 | 0.00 | 0.00 | 0.00 | 72 | 1012.8 |
| 20260506213053 | 86 | 90 | 8.0 | 16.0 | 0.00 | 0.00 | 0.00 | 73 | 1012.8 |
| 20260506211552 | 87 | 44 | 7.0 | 15.0 | 0.00 | 0.00 | 0.00 | 70 | 1012.8 |
| 20260506210055 | 87 | 67 | 8.0 | 18.0 | 0.00 | 0.00 | 0.00 | 71 | 1013.1 |
| 20260506204559 | 88 | 44 | 8.0 | 19.0 | 0.00 | 0.00 | 0.00 | 71 | 1013.1 |
| 20260506203055 | 88 | 74 | 10.0 | 18.0 | 0.00 | 0.00 | 0.00 | 67 | 1013.2 |
| 20260506201552 | 88 | 79 | 8.0 | 17.0 | 0.00 | 0.00 | 0.00 | 68 | 1013.3 |
| 20260506200051 | 88 | 41 | 9.0 | 18.0 | 0.00 | 0.00 | 0.00 | 70 | 1013.5 |
| 20260506194603 | 88 | 107 | 8.0 | 15.0 | 0.00 | 0.00 | 0.00 | 69 | 1013.8 |
| 20260506193059 | 88 | 66 | 10.0 | 18.0 | 0.00 | 0.00 | 0.00 | 68 | 1013.9 |
| 20260506191552 | 88 | 92 | 11.0 | 21.0 | 0.00 | 0.00 | 0.00 | 67 | 1013.9 |
| 20260506190049 | 88 | 82 | 7.0 | 18.0 | 0.00 | 0.00 | 0.00 | 69 | 1014.0 |
| 20260506184550 | 88 | 82 | 8.0 | 20.0 | 0.00 | 0.00 | 0.00 | 67 | 1014.2 |
| 20260506183100 | 88 | 96 | 8.0 | 18.0 | 0.00 | 0.00 | 0.00 | 70 | 1014.3 |
| 20260506181552 | 88 | 110 | 10.0 | 18.0 | 0.00 | 0.00 | 0.00 | 70 | 1014.6 |
| 20260506180055 | 89 | 7 | 7.0 | 16.0 | 0.00 | 0.00 | 0.00 | 70 | 1014.7 |
| 20260506174556 | 88 | 98 | 9.0 | 20.0 | 0.00 | 0.00 | 0.00 | 68 | 1014.8 |
| 20260506173059 | 88 | 88 | 10.0 | 20.0 | 0.00 | 0.00 | 0.00 | 71 | 1014.9 |
| 20260506171604 | 88 | 119 | 10.0 | 20.0 | 0.00 | 0.00 | 0.00 | 69 | 1015.0 |
| 20260506170107 | 87 | 85 | 8.0 | 17.0 | 0.00 | 0.00 | 0.00 | 73 | 1015.0 |
| 20260506164600 | 87 | 82 | 11.0 | 18.0 | 0.00 | 0.00 | 0.00 | 72 | 1015.1 |
| 20260506163105 | 87 | 108 | 10.0 | 17.0 | 0.00 | 0.00 | 0.00 | 73 | 1015.3 |
| 20260506161603 | 87 | 139 | 10.0 | 18.0 | 0.00 | 0.00 | 0.00 | 72 | 1015.2 |
| 20260506160052 | 87 | 48 | 7.0 | 18.0 | 0.00 | 0.00 | 0.00 | 72 | 1015.2 |
| 20260506154608 | 86 | 132 | 7.0 | 18.0 | 0.00 | 0.00 | 0.00 | 77 | 1015.2 |
| 20260506153055 | 86 | 94 | 9.0 | 20.0 | 0.00 | 0.00 | 0.00 | 76 | 1015.3 |
| 20260506151551 | 86 | 89 | 7.0 | 17.0 | 0.00 | 0.00 | 0.00 | 78 | 1015.3 |
| 20260506150051 | 87 | 75 | 8.0 | 15.0 | 0.00 | 0.00 | 0.00 | 75 | 1015.3 |
| 20260506144601 | 86 | 116 | 8.0 | 16.0 | 0.00 | 0.00 | 0.00 | 74 | 1015.3 |